Погода в Салыме

Россия / Ханты-Мансийский автономный округ - Югра     60°04′28″N   71°27′48″E
темп.,
°C
ветер,
м/с
пор.,
м/с
влажн.,
%
обл.,
%
осадки,
мм/ч
давл.,
гПа
погр.,
м
8 мая, сб
сб823:00+5зсз22633 0.0 101416
02:00+4з23675 0.0 101556
05:00+4ссз26715 0.0 1017157
08:00+9ссз36465 0.0 1018566
11:00+13сз36385 0.0 10181037
14:00+16ссз35378 0.0 10181373
17:00+16с34385 0.0 10181244
20:00+10всв25575 0.0 101988
9 мая, вс
вс923:00+6в38725 0.0 1020170
02:00+4вюв268367 0.0 1022147
05:00+4вюв268099 0.0 1023178
08:00+10в34566 0.0 1024471
11:00+14в334369 0.0 1024847
14:00+17в333835 0.0 10231226
17:00+17всв34395 0.0 10241296
20:00+12в25585 0.0 102596
10 мая, пн
пн1023:00+8всв27725 0.0 1026151
02:00+6всв26755 0.0 1027113
05:00+5всв24725 0.0 1028108
08:00+11всв24470 0.0 1028570
11:00+15св34405 0.0 10271492
14:00+17св34311 0.0 10262057
17:00+17св44325 0.0 10251963
20:00+11св24540 0.0 102576
11 мая, вт
вт1123:00+8в237292 0.0 102660
02:00+6вюв22785 0.0 102530
05:00+6вюв24800 0.0 102597
08:00+12вюв23510 0.0 1025682
11:00+15вюв22360 0.0 10241377
14:00+18юв11290 0.0 10221697
17:00+18юв112817 0.0 10211812
20:00+13юв224747 0.0 102014
12 мая, ср
ср1223:00+9юв23609 0.0 102064
02:00+7юв11631 0.0 102010
05:00+7в00631 0.0 102110
08:00+14ссв12435 0.0 1021480
11:00+17ссв23347 0.0 10211721
14:00+19с343036 0.0 10212463
17:00+15с5747100 0.0 10221025
20:00+11с5966100 0.0 1025562